Satellite-Ground Cal/Val Region Overpasses Predictions

Prediction of Satellite NPP Overpassing Cal/Val Region: PacNW

Region Location: (Latitude: 10.00, Longitude: 139.50) to (Latitude: 22.70, Longitude: 165.60).

Table of predicted overpasses for the next 14.0 days since TLE Epoch: 2/10/2024
Interval Starting Time Starting Location Ending Time Ending Location
1 02/10/2024 02:46:17 ( 10.05, 158.23) 02/10/2024 02:49:52 ( 22.68, 155.22)
2 02/10/2024 15:18:10 ( 22.66, 155.47) 02/10/2024 15:21:45 ( 10.04, 152.46)
3 02/11/2024 02:27:15 ( 10.04, 162.99) 02/11/2024 02:30:50 ( 22.66, 159.99)
4 02/11/2024 14:59:08 ( 22.68, 160.23) 02/11/2024 15:02:44 ( 10.00, 157.21)
5 02/12/2024 02:10:49 ( 19.24, 165.59) 02/12/2024 02:11:47 ( 22.64, 164.75)
6 02/12/2024 03:49:42 ( 10.03, 142.38) 02/12/2024 03:53:08 ( 22.12, 139.51)
7 02/12/2024 14:40:05 ( 22.70, 164.99) 02/12/2024 14:43:41 ( 10.02, 161.98)
8 02/12/2024 16:21:35 ( 22.69, 139.62) 02/12/2024 16:21:42 ( 22.28, 139.51)
9 02/13/2024 03:30:40 ( 10.01, 147.14) 02/13/2024 03:34:16 ( 22.69, 144.12)
10 02/13/2024 16:02:34 ( 22.64, 144.36) 02/13/2024 16:06:09 ( 10.02, 141.36)
11 02/14/2024 03:11:38 ( 10.00, 151.90) 02/14/2024 03:15:14 ( 22.68, 148.89)
12 02/14/2024 15:43:31 ( 22.65, 149.13) 02/14/2024 15:47:06 ( 10.03, 146.12)
13 02/15/2024 02:52:36 ( 10.05, 156.65) 02/15/2024 02:56:11 ( 22.67, 153.65)
14 02/15/2024 15:24:29 ( 22.66, 153.89) 02/15/2024 15:28:04 ( 10.04, 150.89)
15 02/16/2024 02:33:34 ( 10.04, 161.41) 02/16/2024 02:37:09 ( 22.66, 158.41)
16 02/16/2024 15:05:26 ( 22.67, 158.65) 02/16/2024 15:09:01 ( 10.05, 155.65)
17 02/17/2024 02:15:14 ( 12.56, 165.59) 02/17/2024 02:18:06 ( 22.66, 163.17)
18 02/17/2024 03:56:01 ( 10.04, 140.80) 02/17/2024 03:57:36 ( 15.62, 139.50)
19 02/17/2024 14:46:24 ( 22.68, 163.41) 02/17/2024 14:50:00 ( 10.00, 160.40)
20 02/18/2024 03:36:59 ( 10.04, 145.56) 02/18/2024 03:40:34 ( 22.66, 142.56)
21 02/18/2024 14:30:25 ( 11.89, 165.59) 02/18/2024 14:30:57 ( 10.01, 165.16)
22 02/18/2024 16:08:51 ( 22.68, 142.80) 02/18/2024 16:12:26 ( 10.06, 139.79)
23 02/19/2024 03:17:56 ( 10.03, 150.32) 02/19/2024 03:21:31 ( 22.65, 147.32)
24 02/19/2024 15:49:49 ( 22.68, 147.56) 02/19/2024 15:53:25 ( 10.00, 144.54)
25 02/20/2024 02:58:54 ( 10.03, 155.08) 02/20/2024 03:02:29 ( 22.65, 152.08)
26 02/20/2024 15:30:46 ( 22.68, 152.32) 02/20/2024 15:34:22 ( 10.01, 149.30)
27 02/21/2024 02:39:51 ( 10.03, 159.84) 02/21/2024 02:43:26 ( 22.65, 156.84)
28 02/21/2024 15:11:44 ( 22.68, 157.08) 02/21/2024 15:15:20 ( 10.01, 154.06)
29 02/22/2024 02:20:49 ( 10.03, 164.60) 02/22/2024 02:24:24 ( 22.65, 161.60)
30 02/22/2024 14:52:42 ( 22.68, 161.84) 02/22/2024 14:56:18 ( 10.01, 158.82)
31 02/23/2024 03:43:16 ( 10.04, 143.98) 02/23/2024 03:46:51 ( 22.66, 140.98)
32 02/23/2024 14:34:49 ( 18.58, 165.59) 02/23/2024 14:37:15 ( 10.00, 163.58)
